Вернуться в каталог

CZ-6A DEB

АктивенSSO
NORAD 56602·DEBRIS·🇨🇳 China

Запущен Nov 11, 2022 с Taiyuan Satellite Launch Center

Loading…

Ближайшие Пролёты (ближайшие 24 часа)

TLE

СвежийSource: Space-Track

Эпоха: Sep 14, 2026, 12:38 UTC

1 56602U 22151AEA 26257.52650982  .00004366  00000-0  15365-2 0  9990
2 56602  98.7803 280.3033 0028207 351.4516   8.6184 14.35160616184787

Отслеживайте CZ-6A DEB в реальном времени с AllMySat

Download on the App Store